Wind_Speed
19 19 18 17 15 14 14 14 13 12 12 11 10 9 7 6 5 4 3 2 2 1 1 2 3 3 4 5 7 7 8 8 7 8 9 9 10 8 6 7 6 5 6 7 7 8 8 7 8 9 12 12 10 11 11 10 9 8 9 9 9 10 9 8 8 9 10 11 10 10 11 12 12 12 11 12 11 10 11 11 12 13 14 15 16
18 18 18 18 15 14 14 13 13 12 12 11 10 9 8 6 5 4 3 2 2 2 1 1 3 4 5 6 7 7 8 8 7 8 10 9 9 7 6 6 6 5 5 6 7 9 9 7 7 8 12 11 9 11 11 10 8 7 8 8 9 9 8 8 7 7 8 11 10 9 10 10 11 11 10 11 11 11 12 12 13 14 15 15 16
17 17 17 18 17 16 15 13 13 12 12 11 10 9 8 6 5 4 3 1 1 1 1 1 3 4 5 6 6 7 7 7 6 7 10 9 9 8 6 5 6 5 5 5 7 9 8 7 7 8 11 11 8 10 11 10 8 7 8 8 9 9 8 9 9 8 8 10 12 11 10 11 11 11 11 12 12 12 14 14 13 14 15 15 16
19 18 15 17 18 17 16 14 14 13 13 10 10 10 9 7 7 6 4 1 1 1 1 1 2 3 4 5 6 6 6 6 6 7 8 10 9 8 6 5 5 5 4 4 6 9 8 7 7 8 11 10 8 9 10 10 8 7 9 10 11 10 10 11 11 13 13 13 13 13 12 12 13 14 15 15 14 14 15 15 14 14 15 15 17
22 23 18 14 15 17 16 16 14 13 15 14 13 12 10 9 8 7 5 3 3 2 2 2 2 2 3 4 5 5 5 5 6 6 6 9 9 8 8 6 5 5 4 4 6 9 9 8 7 8 10 10 8 8 9 9 8 8 10 12 12 11 12 13 14 15 15 14 14 15 13 14 16 16 16 16 14 14 15 15 14 16 16 17 19
19 24 22 15 12 14 15 16 15 15 19 20 17 13 10 10 9 8 6 5 5 4 3 3 2 2 3 3 4 4 4 5 5 5 5 7 8 6 7 8 6 6 5 4 5 8 9 8 8 8 9 9 8 7 8 8 8 9 12 13 12 13 14 15 16 15 15 15 15 16 15 15 16 16 17 16 15 14 15 15 15 16 18 19 21
16 19 19 15 12 12 13 14 15 18 20 20 18 13 11 11 10 9 8 7 6 4 3 3 2 1 2 1 3 3 3 5 5 5 5 6 6 5 7 9 8 7 7 5 5 8 9 9 9 9 8 8 8 7 9 9 8 10 13 13 14 15 15 15 16 16 16 16 16 16 15 15 15 17 18 16 15 17 17 17 17 18 19 21 22
16 16 15 15 14 13 12 12 13 16 17 19 19 14 13 12 11 10 9 8 8 6 4 3 2 1 2 1 2 2 3 5 4 4 4 4 5 5 6 9 8 8 7 6 6 8 9 10 9 10 8 7 7 6 8 9 8 10 12 13 14 15 15 15 16 16 16 17 17 17 16 17 18 19 18 15 16 19 20 20 20 21 22 22 23
16 17 16 14 15 15 13 14 15 14 14 18 19 15 14 13 11 10 9 9 8 7 6 4 3 2 2 1 1 2 3 5 4 4 4 4 4 3 4 6 7 7 7 6 6 7 9 9 9 12 11 7 6 7 8 9 9 10 12 12 13 14 15 16 16 16 17 17 17 17 18 19 19 18 18 17 19 20 20 21 22 23 23 24 24
16 17 19 17 15 15 15 17 20 15 12 15 17 15 15 15 12 11 10 9 8 7 6 5 4 3 2 2 1 3 4 5 5 3 3 4 4 4 3 5 5 6 7 6 6 8 8 8 9 12 12 8 7 7 8 9 10 11 11 12 13 14 15 15 16 17 17 17 18 18 20 20 19 18 18 18 20 21 21 22 22 23 24 25 25
17 16 18 19 18 17 17 18 20 17 12 13 15 15 16 16 14 12 11 10 8 7 6 5 4 3 3 3 2 4 5 5 5 4 3 4 5 4 4 4 5 6 7 6 6 8 8 9 10 11 12 11 9 7 7 10 10 11 11 12 12 13 14 14 15 16 16 17 18 18 20 20 19 19 19 20 21 21 22 22 24 25 25 26 25
19 17 16 18 18 18 19 18 18 18 14 14 15 14 16 19 16 14 13 10 9 8 7 6 5 4 4 4 3 4 5 5 5 5 4 4 4 4 4 4 4 5 6 6 6 8 9 9 11 11 11 12 11 7 7 10 11 11 11 12 12 13 13 14 14 16 17 17 18 19 19 19 19 19 20 21 21 21 22 23 26 27 25 25 25
20 19 18 17 16 17 19 19 18 19 17 15 15 12 14 19 17 15 14 12 10 10 9 8 6 5 4 4 4 4 5 5 5 5 4 3 3 4 4 4 4 4 5 7 7 7 8 9 11 11 11 11 10 9 7 9 11 11 11 11 12 12 13 13 13 15 17 17 17 19 19 19 18 19 20 21 20 21 22 23 26 26 24 24 23
20 20 19 18 16 15 19 21 20 20 19 16 14 12 12 16 17 15 14 13 11 11 12 10 7 7 5 5 5 5 4 5 5 5 4 3 3 5 5 5 5 5 5 6 7 7 7 9 10 10 11 11 10 10 8 8 10 11 12 11 11 12 12 13 13 14 15 15 16 18 18 18 18 19 20 20 20 21 22 23 26 26 24 23 22
21 20 19 19 17 15 17 21 21 22 23 18 14 14 13 14 17 16 14 13 11 12 13 12 9 7 6 4 4 4 4 5 5 4 4 3 4 5 5 5 7 6 5 5 7 7 7 9 9 9 10 11 11 11 9 10 10 10 11 12 11 11 12 13 13 13 13 14 16 17 17 16 18 19 20 20 21 21 22 22 23 24 23 23 23
21 20 19 18 19 17 15 19 21 21 25 22 16 16 16 15 17 16 16 15 12 11 13 12 10 8 6 4 4 4 4 5 6 6 5 4 4 5 6 6 6 6 6 5 6 7 8 9 10 10 10 11 12 12 10 11 10 9 11 12 12 12 12 13 13 12 12 14 16 17 16 16 18 19 19 20 20 21 22 22 22 22 23 24 24
22 22 21 19 19 20 17 18 21 19 21 23 19 17 17 17 17 17 17 17 14 12 12 12 12 10 8 4 3 4 3 4 5 6 6 5 4 5 6 7 7 7 7 6 6 7 8 10 11 10 10 10 11 11 11 11 11 10 11 13 13 12 13 14 13 12 13 14 16 17 16 16 18 19 19 19 20 21 21 22 22 22 23 24 24
22 22 22 22 20 21 20 19 21 19 17 21 20 18 17 18 19 18 18 18 16 14 13 13 12 12 10 7 4 4 2 4 3 3 5 5 5 6 7 7 8 8 7 7 8 9 8 9 10 10 10 10 10 11 12 12 12 12 11 13 14 13 13 14 13 13 13 14 15 17 17 17 18 19 20 20 21 20 20 21 21 22 24 25 24
23 23 23 24 22 22 21 19 20 19 16 18 21 21 18 17 18 18 18 18 17 16 15 15 12 11 11 10 7 4 3 4 3 2 3 4 6 6 7 8 8 8 8 8 9 10 10 9 10 10 9 10 12 12 13 12 12 12 12 13 14 14 14 14 13 13 14 15 16 17 17 17 18 19 20 21 20 20 20 21 21 22 24 24 23
23 24 24 24 24 23 22 21 20 18 16 17 20 21 20 17 16 16 17 17 18 16 16 17 14 12 12 10 9 7 6 6 5 5 4 3 5 7 7 8 9 9 10 10 9 10 11 11 10 10 9 11 13 13 14 13 13 13 14 14 15 15 15 14 13 13 14 16 16 17 18 17 18 19 20 21 21 21 21 20 20 22 23 24 24
21 23 24 24 25 25 23 22 21 19 18 17 18 19 21 20 17 16 16 16 17 16 15 17 16 14 14 12 10 9 9 8 6 7 6 5 4 5 7 8 9 10 11 10 10 10 10 11 11 11 10 11 13 12 13 14 14 14 14 15 16 17 16 14 14 14 15 16 16 17 18 17 17 19 20 21 21 21 21 20 20 21 22 23 24
20 21 23 23 25 26 25 23 23 21 19 18 17 18 20 21 20 18 17 15 16 17 15 16 17 16 15 14 12 11 10 8 7 8 8 7 6 3 7 9 8 10 12 12 11 11 11 11 11 12 11 11 12 12 14 15 15 16 15 15 18 18 17 15 15 15 16 16 16 17 18 17 17 19 20 20 20 20 20 20 20 20 21 22 23
20 21 23 24 23 25 26 24 22 22 21 19 18 18 18 20 20 19 19 17 16 16 16 15 16 16 16 15 14 13 11 9 9 9 8 7 7 5 6 8 7 8 11 12 12 12 12 12 12 13 12 12 12 12 15 15 15 17 16 15 19 19 18 17 16 17 17 16 16 17 17 17 17 18 19 20 20 19 20 20 20 20 21 21 22
21 21 22 24 24 25 27 25 23 22 21 20 19 19 17 18 19 19 20 19 17 16 17 17 16 16 17 16 15 13 13 11 10 10 9 8 7 6 6 7 6 6 10 11 11 12 14 14 13 13 12 13 13 12 15 15 15 18 18 16 18 20 19 18 17 17 17 17 17 17 17 17 17 19 19 20 20 20 19 20 20 20 21 20 21
22 21 21 23 25 26 27 27 25 23 21 20 20 20 18 17 18 19 19 19 19 18 18 18 17 17 17 17 16 14 14 13 11 10 10 10 9 8 6 7 7 6 9 10 10 11 13 15 15 14 13 14 15 14 15 15 16 20 21 18 18 21 21 19 19 19 18 18 18 18 18 18 18 19 19 20 21 21 19 19 20 20 20 20 20
22 22 21 22 25 27 27 27 27 25 21 20 19 18 19 18 18 18 18 18 19 19 19 19 19 18 17 16 16 15 14 13 12 12 12 11 11 10 7 7 8 7 8 10 11 11 12 14 16 16 14 14 15 15 15 16 17 19 21 20 19 21 22 21 20 21 19 19 20 19 19 19 19 20 20 19 21 21 20 19 20 21 21 20 20
22 21 22 22 23 25 25 26 26 25 21 19 17 17 19 19 18 18 18 18 18 19 19 19 20 20 18 17 16 16 15 14 13 14 13 13 13 12 10 8 6 7 7 9 11 12 13 13 15 17 15 13 15 16 16 17 17 18 20 22 21 22 24 23 22 22 21 20 21 21 21 21 20 20 20 19 20 22 20 19 19 21 22 21 20
21 20 21 21 21 23 24 26 26 26 23 21 19 18 20 20 19 18 18 18 18 19 19 19 20 21 20 18 17 16 16 15 14 14 14 14 13 14 14 11 8 6 6 7 9 11 13 14 14 17 18 15 16 18 17 18 18 18 20 21 22 23 25 24 23 22 22 21 22 22 22 22 22 21 21 19 20 21 21 20 20 21 22 22 21
20 19 19 20 22 23 25 28 30 30 28 25 24 22 21 21 21 20 19 18 19 19 19 19 20 20 20 20 19 17 16 16 15 14 14 14 15 15 15 15 12 8 6 6 7 10 14 16 14 16 19 19 18 18 17 18 20 20 21 20 20 22 25 25 23 22 23 22 23 23 22 23 23 22 22 20 20 22 22 21 21 21 22 23 22
21 20 18 19 22 23 26 28 31 32 29 26 26 25 24 22 21 21 20 20 20 20 20 20 20 20 20 20 20 19 17 17 16 15 15 15 16 17 16 16 16 12 8 7 7 10 13 16 14 14 18 21 19 17 16 19 21 21 22 21 19 21 24 26 24 22 24 23 22 23 23 23 24 24 23 22 22 24 24 23 23 23 23 23 23
23 22 20 20 21 23 25 26 27 30 30 28 28 27 26 24 23 21 21 21 22 22 21 21 21 20 20 21 21 20 18 18 17 16 15 16 16 17 17 16 17 15 13 9 6 8 12 15 15 14 18 20 19 17 16 19 21 21 20 20 20 20 23 25 24 22 24 25 23 24 25 24 24 24 24 24 25 25 26 25 24 24 24 24 24
25 24 23 21 20 21 24 25 26 28 30 31 31 30 27 25 24 22 21 22 24 23 22 22 22 21 21 21 21 21 19 18 18 17 16 17 17 18 17 17 17 16 15 13 8 7 11 14 14 14 17 19 20 18 17 19 21 20 20 20 21 21 22 25 26 22 24 28 26 25 26 25 24 24 24 24 26 26 27 26 25 26 26 26 25
26 24 24 23 21 20 21 24 25 26 29 31 30 31 29 26 24 24 23 24 25 24 23 24 24 23 22 22 21 21 21 20 19 18 17 17 18 18 18 18 18 17 16 15 12 9 10 12 13 13 16 19 20 19 18 19 20 21 22 20 21 24 23 23 26 24 24 28 30 27 27 27 25 25 25 24 24 25 26 27 26 26 27 27 27
27 25 25 23 22 21 21 23 25 26 29 30 28 29 29 27 25 24 25 26 26 25 24 24 25 24 23 23 22 22 22 22 21 19 18 19 19 19 19 19 19 18 17 17 14 12 11 12 13 14 16 19 20 21 21 19 18 21 23 20 18 23 25 23 23 25 25 27 31 30 28 28 28 26 25 24 24 25 26 27 27 27 26 27 28
27 26 25 24 22 22 22 22 24 26 27 29 29 29 28 27 26 25 25 26 27 26 26 26 26 25 23 23 23 23 22 22 22 21 20 20 19 20 20 19 19 18 18 17 16 14 13 14 14 15 17 20 21 21 22 21 18 19 23 22 17 19 25 24 21 24 25 26 31 33 30 30 31 29 27 27 27 26 26 27 27 27 27 27 28
28 26 24 25 24 22 22 22 23 25 26 27 31 32 31 28 28 27 27 27 27 26 26 26 26 26 25 24 24 24 24 23 23 22 21 20 20 20 20 19 19 19 18 18 18 16 14 14 15 16 19 22 22 20 21 23 21 20 21 22 19 18 22 23 21 23 25 24 28 34 33 30 31 31 29 28 28 28 27 27 27 28 28 28 28
30 27 24 24 24 23 24 23 23 25 26 28 31 32 31 29 28 28 28 28 28 27 26 27 27 26 25 25 25 25 26 25 24 23 22 21 21 20 20 20 19 19 18 18 19 18 16 14 15 17 18 21 22 21 22 23 23 22 21 21 20 20 22 23 22 23 25 24 25 31 35 33 31 31 31 29 29 29 29 28 28 28 28 28 28
30 28 25 25 25 24 24 24 23 24 25 29 33 33 31 29 28 28 28 28 28 27 27 26 27 27 26 26 25 25 26 27 25 24 23 22 22 21 20 20 19 18 18 19 19 18 18 16 15 17 18 19 20 22 24 23 22 24 24 22 21 22 22 24 24 22 23 24 24 28 34 36 34 32 32 32 31 31 31 31 31 31 30 30 29
29 27 26 26 26 24 24 24 24 24 24 26 31 35 35 33 30 28 27 28 28 27 26 26 26 27 26 27 26 25 26 27 27 25 23 23 23 22 20 20 20 19 18 18 19 18 17 17 16 17 19 20 20 20 23 24 21 22 24 23 22 24 24 25 24 22 22 24 26 27 30 35 36 35 34 34 33 33 33 33 33 33 32 31 32
29 27 28 29 27 25 23 23 23 24 24 24 27 32 33 32 34 33 29 27 27 26 25 24 25 26 26 26 26 26 26 27 27 26 24 23 23 23 21 20 20 20 19 19 19 18 17 17 18 18 18 19 19 19 21 26 24 22 22 22 21 23 25 24 24 24 23 24 27 29 29 32 34 35 35 35 33 33 34 35 35 34 33 34 34
28 28 29 31 30 27 23 22 22 23 24 25 28 32 32 31 33 32 29 28 27 24 23 22 23 25 25 25 26 26 27 28 28 27 26 24 24 24 22 22 22 21 20 20 19 18 17 17 17 18 18 19 20 20 22 26 26 22 21 21 20 21 22 22 22 24 25 24 25 29 32 32 30 30 32 33 33 33 34 36 37 36 35 36 36
28 27 28 31 31 26 22 21 22 21 23 26 29 32 34 34 29 22 19 21 20 19 19 19 21 24 24 24 25 26 28 28 29 30 29 28 27 25 23 24 25 23 22 21 20 19 18 17 17 19 20 19 20 22 22 22 23 22 22 22 21 22 23 22 21 23 26 26 24 27 32 33 30 27 28 30 32 34 35 36 37 38 37 38 39
28 26 26 29 30 25 21 21 22 20 20 23 28 31 33 34 30 22 18 18 18 19 20 19 21 23 24 24 24 26 28 29 30 31 31 31 31 29 27 26 26 26 25 23 22 21 20 19 19 20 21 20 21 23 23 22 22 24 24 23 23 25 24 22 21 21 26 30 27 25 28 31 31 29 28 29 30 33 34 35 37 38 38 38 40
25 25 25 28 29 23 19 20 21 19 18 21 26 30 32 32 30 28 27 25 24 25 23 22 25 25 24 24 24 24 26 28 29 30 31 32 33 32 30 28 29 29 28 26 25 23 22 21 21 22 23 22 22 24 25 24 24 25 26 25 26 27 25 23 22 22 24 29 29 26 26 28 29 31 31 30 30 32 34 35 37 39 39 39 39
23 24 25 26 25 21 18 19 19 19 18 20 23 27 31 33 30 31 32 28 25 25 24 25 29 28 24 23 23 23 24 27 28 28 28 30 33 34 33 31 31 32 33 31 28 25 24 22 21 23 23 23 23 25 27 27 26 26 27 26 26 28 27 26 26 24 24 29 30 28 28 28 29 30 33 33 31 31 33 36 38 40 41 41 40
23 25 26 24 20 18 18 18 18 19 19 20 24 26 28 32 32 32 33 29 24 24 25 26 29 29 25 23 24 23 23 25 26 26 26 27 29 33 34 34 34 34 34 35 33 31 29 27 24 24 23 23 23 24 27 30 29 28 28 28 27 29 30 29 27 24 24 28 30 26 26 29 29 28 30 33 32 32 33 35 38 41 42 42 41
24 24 25 23 19 18 19 18 18 19 18 20 24 25 25 28 31 32 33 33 28 23 25 28 28 28 26 24 24 24 23 24 26 26 27 27 27 28 30 33 33 32 32 35 37 37 36 33 30 27 25 24 24 23 26 29 30 29 27 27 28 28 27 26 24 22 24 27 28 25 24 26 29 30 29 29 32 34 34 34 37 41 43 43 43
26 25 23 22 20 20 20 19 19 18 17 19 24 25 24 26 29 31 33 36 33 25 25 29 28 27 29 27 25 24 23 23 26 28 28 27 27 26 28 30 30 29 30 32 36 38 39 38 34 30 27 25 24 25 25 27 28 27 24 24 25 24 23 22 21 23 26 26 27 27 24 23 27 30 27 26 30 34 33 33 35 38 41 42 43
27 24 22 23 23 22 21 20 19 18 18 20 24 26 26 26 29 32 31 31 30 27 27 30 28 28 31 29 26 25 24 23 26 28 29 28 27 26 26 27 28 28 28 29 32 35 38 39 39 36 32 28 26 26 27 29 29 27 24 23 24 24 22 19 19 22 25 27 28 28 27 24 24 28 27 25 28 31 30 32 35 36 38 41 43
25 24 23 24 23 23 23 22 22 20 20 22 25 28 29 28 29 31 27 24 25 26 27 30 31 31 32 30 28 26 24 24 26 28 30 30 29 27 26 25 26 27 27 26 27 30 33 36 37 38 38 36 32 28 28 30 32 30 29 26 24 24 23 21 21 21 23 29 33 30 27 26 24 26 27 23 22 27 30 31 33 34 35 37 40
24 23 24 24 23 24 25 24 25 24 21 21 25 28 28 28 29 28 24 22 23 25 25 28 31 33 32 29 30 29 26 24 25 26 30 31 30 28 26 26 25 25 26 26 25 26 28 31 34 37 40 42 39 33 30 30 31 33 33 30 26 26 25 24 25 21 17 24 32 31 29 28 24 23 24 18 12 16 23 27 27 28 28 31 34
Wind_Direction
179 180 182 187 191 187 185 184 184 185 182 183 180 177 176 177 177 174 177 180 159 110 33 26 45 33 45 77 94 98 95 99 105 108 115 123 137 165 173 162 166 142 115 109 116 119 108 88 73 78 90 91 92 97 97 97 96 89 81 76 75 75 77 83 89 96 99 95 90 89 88 87 87 87 87 85 85 87 84 81 85 91 92 92 91
182 183 182 184 189 192 189 185 185 184 182 184 181 175 174 177 177 177 178 175 155 88 37 39 68 60 70 86 93 91 92 98 102 107 116 128 137 157 175 173 170 145 108 103 118 122 115 99 80 85 98 94 94 102 101 99 99 89 81 76 74 75 76 77 82 95 107 108 102 91 88 90 88 86 86 86 87 87 89 90 91 95 98 98 96
181 184 185 185 188 194 194 192 190 188 186 184 181 176 171 175 176 173 165 155 168 113 71 62 72 72 81 90 90 86 89 95 98 104 116 128 133 145 167 183 175 149 105 104 124 127 123 108 89 92 103 101 99 104 104 102 98 86 81 80 80 82 81 75 77 87 101 112 110 99 90 90 89 88 88 90 93 95 99 99 97 98 100 102 101
185 183 184 187 189 193 196 198 196 194 192 185 183 181 173 180 190 183 166 147 186 155 124 97 69 63 75 86 86 84 87 94 99 102 114 123 126 138 156 173 177 166 118 102 128 135 132 117 100 99 106 110 105 100 107 106 95 87 87 91 92 89 85 81 83 89 94 101 105 103 99 95 94 93 91 90 92 100 106 104 103 105 106 108 107
191 190 187 184 190 192 195 199 199 198 198 195 194 190 182 185 194 186 169 172 191 186 171 154 118 83 66 79 85 87 89 92 101 105 116 120 120 137 150 150 159 165 140 110 129 140 138 126 114 104 101 112 111 98 109 106 86 87 95 99 97 90 89 91 92 94 96 100 104 106 104 101 99 95 92 91 92 101 109 108 112 116 114 111 110
193 196 193 186 189 193 195 197 197 203 206 206 203 197 190 183 185 180 168 185 195 192 186 180 170 105 75 76 87 90 90 95 107 109 118 123 121 138 147 137 135 143 142 137 141 147 147 137 127 112 97 109 119 111 114 106 84 92 104 104 96 92 96 98 99 99 99 103 108 110 106 102 101 98 96 96 95 100 108 113 117 118 113 110 109
193 196 195 192 195 196 199 196 197 206 207 208 204 196 194 187 185 182 171 187 194 187 178 171 193 103 74 69 96 102 98 102 114 114 120 131 127 139 147 136 134 137 139 147 151 153 153 145 134 125 112 113 118 114 118 112 90 98 111 106 96 98 101 102 102 101 99 102 108 112 111 106 103 101 101 101 100 99 104 110 113 113 111 109 107
193 194 193 195 201 203 203 197 198 203 203 207 203 193 193 190 186 185 176 187 192 186 181 166 172 128 91 86 104 129 120 113 125 120 122 133 127 135 140 134 142 143 138 146 151 152 154 149 139 133 134 128 119 114 120 116 92 101 115 109 100 102 104 104 104 103 102 104 107 109 109 106 105 107 110 109 104 102 104 106 107 109 111 109 108
193 193 192 194 201 206 206 205 203 199 201 206 202 194 192 188 186 186 179 188 195 187 183 176 169 152 122 91 109 144 134 124 131 129 131 136 127 125 125 134 147 142 134 141 147 150 153 154 149 140 141 140 129 124 124 116 100 107 117 112 107 106 106 106 107 108 108 106 108 110 111 109 109 112 113 111 107 106 106 106 106 108 110 110 109
197 196 198 197 199 204 206 212 210 201 202 206 202 196 191 188 187 183 180 187 196 190 184 179 169 156 124 85 96 141 142 136 136 140 141 137 131 126 123 134 137 129 136 148 151 155 156 160 159 148 146 146 135 130 132 123 111 114 119 116 114 109 110 111 110 111 112 111 112 112 114 114 113 113 113 113 112 111 109 108 109 111 111 111 110
201 200 203 205 205 208 210 216 213 203 204 207 204 197 188 187 185 181 180 180 184 185 181 174 165 152 122 95 103 134 142 139 139 149 144 132 133 133 132 135 133 134 146 156 159 161 161 164 165 156 151 150 147 142 138 133 123 120 122 121 119 114 114 115 113 112 113 115 117 115 115 116 116 116 116 116 114 114 113 113 114 115 113 112 114
206 205 206 208 208 212 216 218 213 204 203 205 207 200 191 189 184 184 181 173 179 185 181 178 165 149 127 112 117 133 143 143 142 150 152 144 141 139 140 144 147 146 151 158 164 171 172 170 168 163 155 153 161 163 148 141 134 126 128 127 124 120 118 118 116 116 116 116 118 118 117 118 119 118 117 116 115 116 117 118 119 117 115 118 120
208 209 209 207 204 209 215 214 208 205 203 203 208 205 197 192 183 181 181 176 182 184 178 176 175 176 162 141 140 141 145 147 145 151 158 157 153 148 145 154 159 152 160 166 169 178 180 176 174 169 159 156 166 169 160 153 143 135 135 133 131 127 123 123 120 119 120 119 119 120 121 121 121 119 119 118 119 120 120 121 121 119 119 123 124
209 211 213 210 206 205 211 211 205 205 206 204 204 203 198 193 183 177 181 184 183 180 177 181 200 209 195 170 161 157 154 152 148 152 163 168 163 158 150 159 168 166 173 172 171 177 181 181 178 173 166 162 165 164 164 163 151 146 145 139 136 133 129 128 125 123 125 125 124 125 126 125 123 122 121 121 122 124 124 125 125 123 123 124 124
211 213 214 214 214 211 213 213 206 207 211 208 203 202 197 194 191 181 179 183 182 178 181 195 214 204 195 204 186 176 177 168 158 149 159 176 180 172 163 166 172 176 183 176 174 177 183 183 176 178 177 168 166 167 167 170 167 162 156 147 143 142 138 135 132 130 132 132 130 130 132 130 129 127 125 126 127 127 128 127 127 127 126 125 124
213 214 216 216 218 218 218 216 208 206 210 210 207 204 200 199 200 190 178 177 177 176 183 199 206 193 199 211 190 211 215 174 156 140 145 171 190 184 172 170 177 183 188 186 181 179 182 180 176 182 181 171 172 174 169 171 176 176 165 156 152 149 146 143 138 137 138 138 134 134 136 135 133 132 131 131 131 130 131 130 128 128 128 126 124
214 214 216 216 217 219 220 218 211 204 205 207 209 208 203 202 204 198 187 180 172 168 178 193 198 203 220 212 190 235 222 167 161 151 150 160 175 189 186 176 181 191 193 192 183 179 180 180 182 184 181 178 180 177 165 163 169 170 168 163 158 155 153 150 144 143 146 145 140 139 140 140 138 137 137 136 135 133 133 131 130 130 129 128 127
216 215 216 218 219 220 221 221 215 207 202 204 207 209 205 203 205 203 197 188 173 166 174 185 194 205 218 224 251 285 182 164 192 179 159 153 156 184 198 185 185 195 199 199 189 185 185 183 185 183 181 183 183 175 164 163 169 168 170 169 164 161 159 157 151 147 150 151 147 146 146 145 143 141 140 138 137 137 136 135 133 134 134 132 132
218 217 217 218 220 222 221 222 219 212 206 205 205 207 206 204 205 206 204 195 183 178 174 175 185 198 206 216 233 253 217 197 238 240 181 168 164 179 199 195 194 198 200 204 198 194 192 187 187 184 182 183 182 176 166 169 176 172 178 179 169 166 164 161 159 154 155 155 152 152 152 151 149 147 144 141 142 143 141 140 139 139 139 137 137
219 219 219 218 219 222 221 220 221 216 211 211 208 204 204 204 205 206 206 199 193 189 179 174 180 189 192 200 207 212 221 223 242 257 255 231 178 178 195 201 206 207 204 206 204 202 195 191 194 189 185 184 184 181 170 172 177 174 187 189 171 169 169 165 164 162 162 160 156 156 157 157 155 152 150 147 147 148 146 144 143 144 144 142 143
220 220 220 218 218 221 222 220 220 219 214 215 214 206 203 202 203 204 203 198 194 193 186 181 184 185 183 189 197 204 214 220 226 235 251 260 218 182 177 187 209 214 211 208 204 206 199 192 195 191 189 187 186 185 173 175 180 176 190 192 175 171 171 168 166 164 166 165 162 162 160 161 161 158 156 153 152 153 151 148 147 148 148 147 147
218 220 221 222 221 221 223 222 220 220 217 215 215 211 206 203 202 203 202 197 192 194 194 189 188 186 183 186 192 200 210 214 215 219 232 247 254 232 173 179 205 204 203 208 202 204 200 193 193 192 193 190 189 189 178 181 186 181 189 188 176 174 172 170 168 164 168 169 167 167 166 167 166 163 160 155 154 155 154 151 151 152 151 151 150
217 216 218 221 222 221 222 222 220 220 218 215 215 212 209 207 204 203 205 202 195 195 197 197 194 189 187 190 195 203 210 213 214 216 223 227 237 248 196 196 214 188 187 201 201 202 202 196 196 194 192 191 194 194 186 187 187 186 195 187 175 176 175 174 172 168 169 173 173 172 173 173 171 168 163 158 155 156 156 156 156 156 154 152 151
218 214 213 214 218 220 220 220 220 219 217 215 216 214 212 211 208 205 205 205 200 195 197 200 199 194 192 195 199 206 211 214 217 215 224 229 227 236 211 205 220 178 167 187 194 201 206 203 200 198 193 191 194 194 190 191 187 189 198 190 179 180 179 177 177 175 174 175 177 176 177 178 175 170 165 161 159 159 162 162 159 159 157 155 155
223 217 212 210 214 219 219 218 218 217 215 215 216 215 213 213 213 209 206 205 203 197 197 199 200 201 201 200 200 207 211 213 215 213 220 228 230 236 213 199 217 182 161 182 192 197 208 209 205 202 197 193 192 190 191 193 193 197 198 190 185 183 181 183 183 181 179 177 180 179 178 179 175 172 169 165 163 163 169 168 162 162 161 160 161
228 223 217 212 213 217 218 218 217 214 213 213 216 215 214 216 216 212 209 207 204 200 198 198 200 205 207 204 203 207 212 213 212 211 215 217 223 229 213 204 219 198 176 188 191 194 204 209 210 207 199 195 193 190 189 191 197 204 199 191 190 184 181 188 188 183 181 180 181 181 180 181 176 172 172 172 169 167 171 172 166 166 166 165 166
232 230 226 217 213 213 214 217 219 218 215 211 213 214 213 216 219 216 212 209 206 203 201 199 200 204 207 208 208 209 212 212 211 212 214 215 218 221 215 211 215 203 196 196 194 201 203 201 208 209 201 196 196 193 189 188 196 206 199 192 193 186 183 191 192 184 182 184 184 183 182 182 178 173 176 179 177 172 174 176 172 171 171 171 171
233 234 233 225 216 210 211 216 217 217 216 211 209 211 211 212 216 216 213 212 208 204 204 204 202 204 205 208 212 213 211 211 213 214 213 214 216 218 215 214 216 209 207 204 203 209 203 194 201 208 205 202 200 198 191 188 197 206 200 194 194 189 186 193 196 188 185 186 186 186 185 184 182 180 181 186 185 181 179 179 178 178 177 176 176
232 235 235 230 223 213 211 216 215 211 211 207 205 207 208 209 211 213 212 213 212 209 208 208 205 204 206 209 213 216 213 210 213 214 213 212 213 216 217 216 221 223 215 213 212 210 201 195 198 202 204 205 202 200 194 191 199 205 200 195 194 193 192 195 198 192 188 189 189 189 189 187 187 185 185 188 188 185 183 183 184 185 184 183 181
231 234 236 235 231 221 214 215 214 212 212 208 204 202 203 206 208 209 211 213 215 214 211 209 206 204 205 210 213 216 214 209 213 214 213 211 210 215 218 217 223 229 230 230 218 208 198 194 198 197 200 204 201 198 195 195 200 200 197 194 191 197 199 195 198 197 189 190 193 193 192 191 191 190 190 190 187 186 186 187 189 189 189 188 185
228 231 236 238 235 228 222 217 213 214 215 213 209 204 200 203 206 207 208 211 215 215 212 210 208 205 205 208 211 215 213 210 212 213 212 211 210 214 217 217 222 226 230 239 230 208 193 191 198 194 193 199 199 196 195 198 202 195 192 195 192 200 204 195 197 202 193 191 195 198 198 197 196 195 196 195 191 189 190 190 191 192 192 193 190
226 226 231 235 234 231 228 223 218 216 215 213 211 210 205 202 205 206 206 209 214 215 214 213 212 209 207 207 209 212 213 211 213 212 211 210 209 213 216 216 221 223 224 234 238 214 191 191 200 192 185 191 195 195 193 196 203 197 192 199 197 199 204 197 197 205 198 192 194 199 202 203 201 199 199 199 197 194 194 195 196 195 193 195 196
225 221 222 227 230 229 228 226 223 219 216 214 212 214 213 207 204 206 207 210 214 216 216 214 213 212 210 209 210 212 213 214 214 213 212 209 207 212 215 215 219 220 219 224 232 224 195 189 199 189 179 187 194 195 191 190 201 200 195 199 199 199 201 197 199 206 202 195 194 196 202 205 205 201 199 203 205 202 199 198 200 201 198 198 200
221 218 217 219 222 224 226 227 226 221 218 216 213 212 216 214 208 206 207 209 212 213 215 214 212 212 212 212 213 213 214 216 217 215 212 209 207 209 212 214 216 218 217 218 225 227 205 189 194 186 177 187 194 195 193 190 195 197 195 196 196 198 200 196 199 206 206 200 197 197 200 203 206 205 201 204 209 208 204 202 203 205 205 203 203
216 215 215 216 218 221 223 224 226 225 220 218 217 213 214 215 213 210 208 209 210 209 212 214 212 211 211 212 213 213 213 215 216 215 213 211 209 209 210 211 214 218 219 219 224 229 218 200 193 186 184 190 195 195 196 196 193 191 195 199 196 194 199 199 200 206 209 206 202 201 201 203 208 211 207 206 209 210 210 209 208 208 209 208 207
214 214 213 215 218 220 222 222 224 225 221 218 219 218 217 215 213 213 211 210 210 208 210 214 213 212 211 212 212 213 213 215 215 214 213 212 210 210 209 209 213 218 219 220 224 229 227 211 194 190 192 194 195 193 193 197 198 193 194 202 203 196 198 201 203 209 214 213 207 205 205 205 208 213 214 210 208 209 211 212 213 213 213 213 213
215 215 209 210 216 218 221 222 223 224 221 217 218 219 221 218 214 213 214 212 210 210 211 214 213 213 213 212 212 212 213 215 215 213 212 212 211 209 209 209 213 218 219 220 223 226 232 220 194 189 195 194 194 194 192 193 197 196 196 202 205 200 198 203 207 211 216 217 212 208 207 208 209 212 215 213 209 210 212 212 214 215 215 217 219
213 212 207 208 214 216 219 222 223 225 222 218 217 218 219 220 218 215 215 214 213 212 212 214 214 214 214 213 213 212 214 215 214 213 211 211 212 211 209 208 211 218 220 219 219 222 229 227 204 190 192 194 194 196 196 194 192 194 197 200 202 200 200 205 209 211 214 216 215 211 209 210 211 213 216 216 215 214 214 214 215 216 216 219 222
212 209 206 209 215 216 217 220 223 226 225 219 217 217 218 220 221 218 216 216 215 213 213 214 214 214 215 215 214 213 214 215 214 213 210 210 212 212 209 206 208 216 219 218 218 218 221 226 216 197 191 196 198 196 197 197 195 195 195 196 199 202 203 206 208 208 211 214 216 215 212 211 213 215 217 220 221 219 218 217 217 219 219 219 222
211 209 206 210 217 217 216 219 223 227 227 218 212 215 220 224 227 223 215 213 213 211 212 213 214 215 215 215 215 214 214 215 213 211 210 209 210 210 208 203 203 212 217 217 217 216 215 221 220 206 194 195 197 194 193 197 200 200 197 194 196 200 203 207 209 209 208 211 214 216 214 212 213 217 220 222 224 222 220 220 220 221 222 221 222
209 208 206 209 217 217 213 218 224 226 228 222 214 214 216 223 234 231 218 212 212 211 211 213 214 215 214 213 214 214 214 214 214 212 211 209 208 207 204 200 199 205 214 216 216 215 213 216 220 214 201 193 193 192 191 195 199 201 198 195 198 200 201 205 211 211 209 210 211 213 214 213 211 214 218 220 221 220 219 220 222 223 223 223 223
207 206 204 208 216 216 210 218 225 223 225 225 223 220 216 219 234 241 226 217 217 217 218 217 216 216 215 213 213 215 216 215 215 215 213 212 211 207 202 199 198 200 206 213 214 211 210 212 216 215 208 200 195 195 194 195 200 201 195 195 201 202 200 204 212 212 210 210 206 207 213 214 211 211 214 216 217 217 217 219 221 223 224 224 224
206 203 201 206 216 216 208 217 225 221 219 223 225 226 223 222 227 230 223 220 221 223 225 223 221 218 215 214 214 215 217 218 217 216 215 214 214 211 207 202 200 200 203 208 210 207 205 209 212 215 215 207 198 200 202 199 200 201 197 197 201 202 200 205 211 212 210 209 206 205 209 211 211 212 215 216 216 216 217 217 219 221 222 222 224
203 201 199 204 211 212 207 215 223 219 216 223 228 229 227 225 224 221 219 219 216 216 217 220 223 221 215 212 213 213 215 217 216 216 216 217 218 217 214 211 207 206 206 208 209 207 205 207 210 215 219 213 204 205 208 205 200 199 199 201 202 202 203 206 212 214 209 205 206 210 210 208 209 213 217 218 217 218 219 219 219 221 222 222 222
200 202 205 207 206 203 204 211 217 215 214 223 231 231 226 223 220 216 215 215 213 212 211 215 222 223 216 210 211 213 214 214 214 215 217 219 221 222 223 221 216 215 215 215 214 211 209 209 212 216 219 217 210 205 206 207 204 198 198 201 202 205 209 212 215 216 208 202 204 211 215 211 208 212 218 220 219 220 221 221 220 221 223 224 223
201 202 208 211 203 198 204 208 210 213 215 222 232 235 230 224 218 214 213 214 218 217 212 213 220 223 219 212 210 211 212 210 210 212 213 215 218 221 224 225 223 223 224 225 224 221 217 216 218 220 220 220 216 209 204 205 206 202 199 199 200 204 211 215 217 215 209 204 203 207 215 214 208 211 217 219 220 222 223 223 222 222 222 225 225
204 204 207 209 204 201 206 205 206 212 215 221 231 237 235 227 220 218 220 222 224 223 216 214 219 224 224 218 213 211 210 209 208 208 209 210 211 214 218 222 224 226 228 230 230 227 224 223 224 224 224 223 223 219 208 202 205 209 207 202 202 205 210 215 217 215 212 206 200 204 216 216 208 210 218 219 219 222 224 224 225 224 224 226 228
207 205 204 206 205 204 205 204 204 209 213 220 229 235 238 232 223 220 223 225 226 227 225 222 222 227 229 225 217 214 211 209 210 209 207 207 208 210 213 217 220 223 226 229 231 230 228 227 227 226 227 228 228 225 215 204 205 210 210 210 209 206 208 212 213 213 213 206 198 202 217 220 208 208 217 219 218 221 224 224 226 228 228 230 232
204 201 199 203 205 203 203 202 201 206 213 219 226 232 235 234 225 220 219 222 225 227 228 227 225 227 230 226 220 217 213 211 213 212 209 208 210 210 211 213 216 219 222 225 229 232 232 231 230 229 230 232 232 230 222 215 211 206 205 211 209 202 204 208 209 212 212 207 202 202 214 222 210 204 212 218 216 218 222 224 227 231 233 233 234
198 195 196 201 203 201 199 196 195 202 210 216 222 228 231 230 226 221 216 215 219 223 225 226 225 227 230 227 221 219 217 214 215 215 213 211 211 213 214 213 214 217 219 219 223 230 233 235 235 235 234 234 235 233 226 222 221 214 210 215 210 201 204 209 210 212 209 209 207 203 209 220 211 200 206 212 214 217 220 222 225 228 231 232 233
196 194 195 197 200 202 199 193 194 200 206 213 220 225 226 226 224 220 215 211 215 219 222 224 224 227 230 228 224 222 220 219 219 219 216 212 212 215 216 216 216 217 217 215 215 220 225 229 233 235 235 234 234 233 227 224 227 224 221 221 215 206 210 216 217 214 211 213 211 203 205 214 205 194 198 198 202 216 217 217 221 223 226 228 228
Height
822 823 825 826 828 829 830 831 832 833 835 836 837 838 840 841 841 842 842 842 841 841 841 840 839 839 838 838 838 838 838 839 840 841 842 843 843 844 846 847 847 848 848 849 850 851 851 852 852 852 852 853 853 853 853 853 853 853 853 853 853 853 853 853 853 854 854 855 855 856 856 856 857 857 858 858 859 859 859 859 860 861 861 862 862
821 822 823 824 826 828 829 830 831 832 834 835 836 838 839 840 841 841 842 841 842 841 841 840 839 839 838 838 838 838 838 839 840 841 842 843 844 845 846 847 848 848 849 849 850 851 852 852 852 853 853 854 854 853 854 854 854 854 854 854 853 853 853 853 853 854 854 855 856 856 856 857 857 858 858 859 859 859 860 860 861 862 862 863 863
819 821 822 823 824 826 828 829 830 831 833 834 836 837 838 839 840 841 841 841 842 841 841 840 839 838 838 838 839 839 839 840 841 841 842 843 845 846 846 847 848 848 849 850 851 852 852 853 853 853 854 855 854 854 855 854 854 854 854 854 854 854 853 853 853 853 854 855 856 856 857 857 858 858 859 859 859 860 861 861 862 863 863 864 865
817 819 821 822 823 825 827 828 829 830 832 833 835 835 837 838 839 840 840 841 842 841 841 840 839 839 838 839 839 839 840 840 841 841 842 843 846 847 847 848 848 848 849 850 851 852 853 853 854 854 855 855 855 855 855 855 855 855 855 855 854 854 854 854 854 854 854 855 856 857 858 858 859 859 859 860 860 861 861 862 863 863 864 865 865
816 817 819 821 822 824 825 826 828 829 830 832 833 835 836 837 839 839 840 841 842 841 841 840 840 840 839 839 840 840 840 841 841 841 842 844 846 847 847 848 848 848 849 850 851 852 853 854 854 855 855 856 856 856 856 856 856 856 855 855 855 855 855 855 855 855 855 856 857 857 858 858 859 860 860 861 861 861 862 863 864 864 865 865 866
815 816 818 820 821 823 824 825 827 828 829 830 832 834 835 836 838 839 840 841 841 841 840 840 840 839 840 840 840 841 841 841 841 841 842 844 845 846 847 848 849 849 849 850 851 852 853 854 855 855 856 857 857 857 856 856 856 856 856 856 856 855 855 856 856 856 856 857 857 858 859 859 860 860 861 861 862 862 862 863 864 865 866 866 867
814 815 817 818 820 821 822 824 825 826 828 829 831 833 834 836 837 838 839 840 840 841 840 841 840 840 841 841 841 841 841 842 842 842 842 843 844 845 846 847 849 850 850 850 851 852 853 854 855 856 857 858 858 857 857 857 857 857 857 857 857 857 857 857 857 857 857 858 858 859 859 860 860 861 862 862 862 863 863 864 865 866 867 868 869
812 814 816 817 818 820 821 822 823 825 827 828 830 832 833 834 836 836 837 838 839 840 840 841 841 841 841 841 841 842 842 842 842 842 842 843 844 844 845 847 848 849 850 850 851 852 853 854 855 856 857 858 858 858 858 858 858 858 858 858 858 858 858 858 858 858 859 859 859 860 860 861 861 862 862 863 863 864 864 865 866 867 868 869 870
811 812 814 815 817 818 819 820 821 823 826 827 828 830 831 833 834 835 836 837 838 839 840 840 841 841 841 841 841 842 842 843 843 843 843 843 843 844 845 846 847 848 849 850 851 852 853 854 856 857 858 858 859 858 858 859 859 859 859 859 859 859 859 859 859 860 860 860 860 860 861 861 862 862 863 863 864 865 865 866 867 868 869 870 871
810 811 812 813 815 816 817 818 820 822 824 826 827 829 829 831 833 834 835 836 837 838 839 840 840 841 841 841 842 842 843 843 843 844 844 844 844 844 845 846 847 848 849 851 851 852 853 854 856 857 858 859 859 859 859 859 860 860 860 860 860 860 861 860 860 861 861 861 861 861 862 862 863 863 864 864 865 866 866 867 868 869 870 872 873
809 810 810 811 813 814 816 817 819 821 823 824 826 827 827 829 831 833 834 836 837 838 839 840 840 841 841 841 842 842 843 843 844 844 844 844 844 844 845 846 847 848 850 850 850 852 853 854 855 857 858 859 859 859 860 860 860 861 861 861 862 862 862 862 862 862 862 862 862 863 863 864 864 864 864 865 866 867 867 868 869 870 871 872 873
808 809 810 810 812 813 814 815 817 819 821 823 824 826 826 827 829 831 833 834 836 837 838 839 840 841 841 841 842 842 843 843 844 844 845 845 845 845 845 846 847 848 849 850 850 851 853 854 855 856 858 859 859 860 860 860 861 861 862 862 863 863 863 863 863 863 863 863 864 864 864 865 865 865 865 866 867 868 868 869 870 871 872 873 874
807 808 809 810 811 811 812 813 815 817 819 821 823 824 825 826 827 829 831 833 835 836 837 839 839 840 841 841 842 842 843 843 844 844 845 845 845 845 846 846 847 848 849 849 850 851 852 853 855 856 857 859 859 860 861 861 861 862 863 863 863 864 864 864 864 864 864 865 865 865 866 866 866 866 866 867 868 869 869 870 871 872 872 873 874
806 807 808 809 810 810 810 810 812 815 817 819 821 823 824 825 826 827 830 832 833 834 836 837 838 838 839 839 841 842 843 843 843 844 845 845 845 845 846 846 847 848 849 849 850 851 852 853 854 855 857 858 859 860 861 861 862 862 863 864 864 865 865 865 865 865 866 866 866 866 867 867 867 867 867 868 869 869 870 871 871 872 873 874 875
804 806 807 808 809 809 809 809 810 812 815 818 819 820 822 824 825 826 828 830 832 833 834 835 836 837 838 838 839 840 842 843 842 843 844 845 845 845 846 846 847 848 849 849 850 851 852 852 854 855 856 858 859 860 861 861 862 862 863 864 865 865 866 866 866 866 866 867 867 867 867 868 868 868 869 869 870 870 871 871 872 873 874 875 876
802 804 805 806 807 808 809 808 809 810 813 816 818 819 820 822 824 825 825 827 830 831 833 834 835 836 837 837 837 838 840 840 840 842 844 845 845 845 845 846 847 848 848 849 850 851 851 852 853 854 855 857 858 859 860 861 861 862 863 864 865 865 866 866 867 867 867 867 868 868 868 868 868 869 869 870 870 871 872 872 873 874 874 875 876
799 802 803 804 805 806 808 808 808 809 811 814 816 818 819 820 823 824 824 825 827 829 831 833 834 835 835 835 837 838 836 835 837 841 843 843 844 845 845 846 847 848 849 849 850 850 851 851 852 853 855 856 857 858 859 860 861 862 863 864 865 865 866 866 867 867 868 868 868 869 869 869 869 869 870 870 871 872 872 873 874 874 875 876 877
797 799 801 802 804 805 806 807 807 807 809 811 814 815 817 818 820 822 823 823 825 827 829 831 833 834 834 834 835 835 833 834 837 839 841 842 843 845 845 846 847 847 848 849 849 850 850 851 852 852 854 855 856 857 858 860 861 862 863 864 864 865 866 866 867 867 868 868 869 869 869 869 869 870 870 871 872 872 873 874 874 875 876 877 878
794 796 798 800 802 803 804 805 805 806 807 808 810 812 814 816 818 820 821 822 823 824 827 829 831 832 834 834 834 834 834 835 835 836 839 841 842 844 845 845 846 847 847 848 848 849 849 850 851 852 852 854 855 856 858 859 860 861 862 863 864 865 865 866 866 867 868 868 869 869 870 870 870 870 871 872 873 873 874 874 875 875 876 877 879
791 793 795 797 799 800 801 803 804 804 805 806 808 809 812 814 816 818 819 820 821 822 824 826 828 830 832 833 834 834 835 835 835 835 836 838 840 842 843 844 845 846 846 847 848 848 848 849 850 851 852 853 854 855 856 858 859 860 861 861 863 864 865 866 866 867 868 868 869 869 870 870 870 870 871 872 873 874 874 875 875 876 877 878 879
789 790 792 794 796 798 799 800 801 802 803 805 806 807 809 811 813 815 817 818 819 820 822 823 825 827 829 831 832 833 834 834 835 835 835 835 836 837 840 843 844 844 845 846 847 847 847 848 849 850 851 852 853 854 855 857 858 859 860 860 862 863 864 865 866 867 868 868 869 869 870 870 870 871 871 872 873 874 875 875 876 877 877 878 879
786 787 789 791 793 795 797 798 799 800 801 803 804 805 806 808 810 813 815 816 817 818 820 822 823 825 826 828 830 831 832 833 834 835 834 834 834 832 835 840 840 841 843 844 845 846 847 847 848 848 850 851 852 853 854 855 857 858 858 859 861 862 864 865 865 866 867 868 869 870 870 870 870 871 872 873 874 874 875 876 877 877 878 879 880
782 784 786 788 790 792 794 795 796 797 799 800 802 803 804 806 808 810 812 814 815 816 818 820 822 823 824 825 827 829 830 830 831 833 833 832 833 832 832 835 837 838 841 843 844 845 846 846 846 847 848 850 850 851 853 854 855 857 857 858 860 861 863 864 865 866 867 868 869 870 871 871 871 872 872 873 874 875 876 877 877 878 879 879 880
779 780 782 784 787 789 790 792 794 795 796 798 799 800 802 804 806 808 810 811 813 814 816 818 820 821 822 823 825 826 827 828 829 830 831 831 831 830 830 833 834 835 839 841 843 844 844 845 845 845 847 848 849 850 851 853 854 855 856 857 858 860 862 863 864 865 866 867 868 870 870 870 871 872 873 874 875 876 877 877 878 879 879 880 881
776 777 779 780 782 784 786 788 790 792 793 795 797 798 800 802 804 805 807 809 811 812 813 815 818 819 820 821 822 824 825 826 827 828 829 830 830 828 828 831 833 833 837 840 841 842 843 843 843 844 845 846 848 849 850 851 852 853 855 856 857 859 860 862 863 864 865 866 868 869 870 870 871 872 873 874 875 876 877 878 879 879 880 881 882
774 775 776 777 778 779 782 784 786 789 791 793 794 796 798 800 802 803 805 807 808 810 811 813 815 817 819 820 820 822 823 824 825 826 827 828 828 827 827 830 831 832 835 837 838 840 841 842 842 843 844 845 846 847 849 850 850 851 853 855 856 857 859 860 861 862 863 865 866 868 869 870 871 872 873 874 875 876 877 878 879 880 881 882 883
771 772 773 774 775 776 778 781 784 787 788 790 792 794 796 798 800 801 802 804 806 807 808 810 812 814 816 818 819 819 820 821 823 824 825 825 826 826 826 828 830 831 832 833 835 836 838 839 841 841 842 843 844 845 847 849 849 850 852 854 855 856 857 859 860 861 862 864 865 866 868 869 870 871 872 873 875 877 878 879 880 881 882 882 883
768 769 770 772 772 773 775 777 781 784 785 787 789 791 793 795 797 799 800 802 803 804 806 807 809 810 813 815 816 817 818 819 820 821 822 823 823 824 824 825 827 829 830 831 831 832 834 836 838 840 840 841 842 843 845 847 848 849 851 853 854 855 856 857 859 860 862 863 864 865 867 868 869 870 871 873 874 876 877 878 879 880 881 882 883
765 767 768 769 770 771 772 773 776 778 780 781 784 787 790 792 794 795 797 799 800 802 803 804 806 807 810 812 813 815 815 816 817 819 820 820 821 822 822 822 823 825 827 829 828 827 830 833 834 837 838 839 841 842 843 844 845 847 849 851 853 854 855 857 858 860 861 862 864 865 866 867 868 869 870 871 872 874 876 877 878 879 880 881 882
762 764 765 766 767 768 769 771 772 775 776 778 779 782 785 787 789 791 793 796 797 799 800 801 802 804 806 808 810 811 812 813 815 816 817 818 818 819 820 821 821 821 821 824 824 823 826 829 831 834 836 837 839 840 841 842 843 845 847 849 851 852 853 855 857 859 860 862 864 864 866 866 867 868 868 869 870 871 873 874 876 877 878 879 881
759 760 762 763 764 766 767 769 770 772 774 776 777 778 779 782 785 787 789 792 794 796 796 797 799 800 802 804 806 808 809 810 812 813 815 815 816 817 817 818 819 819 819 820 821 821 823 826 829 831 833 835 837 839 840 841 841 844 846 847 849 850 851 853 855 857 859 861 862 864 865 865 866 867 867 867 868 868 870 871 872 874 875 876 878
755 756 759 760 762 763 765 766 768 769 770 772 773 775 776 777 780 782 784 787 790 791 793 794 795 797 798 800 802 804 806 807 809 810 811 812 813 814 815 816 817 818 818 818 819 819 821 824 826 828 830 833 835 837 838 839 840 842 845 846 847 848 849 851 852 854 856 858 860 862 863 864 864 865 866 867 867 867 868 869 870 871 872 873 875
752 753 755 757 758 760 761 762 764 766 767 768 769 771 773 773 775 777 779 782 785 787 789 790 792 793 795 796 798 801 802 804 805 807 808 809 810 811 813 814 814 815 816 817 817 817 820 823 825 826 829 831 833 835 837 838 839 841 843 845 846 846 848 849 850 852 853 855 857 859 860 862 863 864 866 867 867 868 868 868 869 869 869 871 872
748 749 751 753 755 756 757 759 760 762 763 765 765 767 769 770 771 772 774 777 780 782 784 786 788 790 791 792 795 797 799 801 802 803 804 806 807 808 810 811 812 812 814 815 815 815 817 820 823 825 827 829 831 833 835 836 837 839 841 842 843 845 846 848 849 850 851 853 854 856 858 859 860 862 864 865 867 867 868 869 869 869 869 870 871
743 745 747 749 751 752 753 754 756 758 759 761 762 763 764 766 767 768 770 772 774 777 779 781 783 786 787 789 791 794 796 797 799 800 801 802 803 805 806 808 809 810 812 813 813 813 815 818 821 823 825 827 829 830 832 834 836 837 839 840 841 842 844 845 847 847 848 850 852 853 855 857 858 860 861 863 865 866 867 868 869 869 869 870 870
739 742 743 745 747 749 750 750 751 753 755 757 758 759 760 762 763 764 766 768 770 772 774 777 779 781 783 785 787 790 792 793 795 796 797 799 800 801 803 805 807 808 810 811 811 812 813 815 818 821 822 824 826 827 830 832 833 835 836 838 839 840 841 843 844 845 845 847 849 851 852 854 855 857 858 860 862 863 865 866 867 868 869 869 870
736 739 739 741 743 745 746 747 747 748 750 752 754 756 758 759 760 761 762 764 766 768 770 773 775 777 779 781 783 786 788 789 791 792 793 795 797 798 800 802 804 806 807 809 809 811 811 812 815 818 820 822 823 824 826 828 830 832 834 835 836 837 839 840 842 842 842 843 846 848 850 851 853 854 856 857 859 860 862 863 865 866 867 868 869
732 734 735 737 739 740 741 743 743 744 746 748 750 753 756 757 757 758 758 760 762 764 766 768 771 773 775 777 779 781 783 785 787 788 790 792 794 795 797 799 801 803 805 806 807 808 809 810 812 816 818 820 821 822 824 825 827 828 830 832 834 835 837 838 839 840 840 841 843 844 846 848 850 852 853 854 856 857 859 860 862 863 865 866 867
727 729 730 733 736 737 737 738 739 740 742 744 746 748 751 753 755 756 755 756 758 760 762 764 767 769 771 773 775 777 779 781 783 784 786 788 790 791 793 795 798 800 802 803 804 806 807 808 810 813 815 818 819 820 822 824 825 826 827 829 831 833 834 836 837 838 838 839 841 842 843 845 847 849 850 852 853 854 855 857 858 860 861 863 864
722 724 725 729 733 734 733 734 735 737 739 741 742 744 748 752 755 754 753 754 755 756 758 760 763 765 767 770 771 773 775 777 779 780 782 784 785 787 789 791 794 796 798 800 801 802 804 805 806 809 812 815 816 818 820 822 823 823 824 826 828 830 832 833 834 835 836 837 838 840 842 843 845 846 848 849 850 851 852 853 854 856 858 859 861
717 720 721 725 730 730 729 729 731 733 735 737 739 741 746 752 755 754 752 752 752 753 755 757 760 762 764 766 767 769 771 773 775 776 777 779 781 782 784 786 789 792 794 796 797 799 800 801 803 805 808 811 812 814 816 817 818 819 821 823 825 826 828 830 831 832 833 834 836 837 838 841 842 844 844 845 846 847 849 850 850 852 853 855 856
713 716 718 722 726 725 724 725 728 729 731 733 735 737 741 746 750 752 752 752 752 753 753 755 757 759 761 763 764 766 768 769 771 772 774 776 777 778 780 781 783 786 789 791 793 794 796 797 798 800 803 805 807 809 811 812 814 816 818 819 821 822 825 826 826 827 828 830 832 833 834 836 838 840 840 841 841 843 844 845 845 847 848 850 852
709 712 714 718 722 721 719 722 725 726 728 729 731 733 736 738 742 746 748 749 750 752 753 753 755 756 758 759 761 762 764 766 767 769 771 772 774 775 776 777 779 781 783 785 787 789 790 792 793 795 796 799 802 805 807 809 810 812 813 814 816 819 820 821 821 822 823 825 827 828 829 831 833 835 836 836 837 837 838 839 840 841 843 845 846
706 708 710 715 718 716 716 718 721 723 725 726 727 729 731 733 736 739 742 744 746 747 749 750 752 754 755 756 757 759 760 762 764 766 768 770 771 773 774 775 776 777 779 781 782 783 784 786 787 789 790 793 796 800 802 803 805 806 808 810 812 814 815 815 816 816 818 820 823 824 825 827 828 830 830 831 831 832 832 833 835 836 837 839 841
702 706 708 711 712 711 712 715 717 720 722 723 724 725 726 729 731 734 737 740 742 743 745 747 749 751 751 752 753 755 756 758 760 763 764 766 768 770 772 773 774 775 776 777 779 780 781 782 783 784 785 788 790 793 795 798 800 801 803 805 807 809 810 810 810 811 813 815 818 820 820 822 824 824 825 826 827 828 828 828 829 830 832 833 836
699 703 707 708 706 706 709 712 714 717 718 720 721 722 724 726 728 730 733 737 739 740 742 744 747 748 748 748 749 750 752 754 756 758 760 762 765 766 768 770 771 771 773 774 776 777 778 779 779 780 782 783 785 787 789 792 795 796 796 798 800 802 803 804 805 808 809 810 813 815 815 816 818 819 819 820 823 824 824 823 824 824 826 827 830
696 699 701 702 702 703 707 709 711 713 715 717 719 720 722 725 726 728 730 733 736 738 739 741 744 745 746 745 745 746 748 750 751 753 755 758 760 762 764 765 766 768 769 770 771 772 774 775 776 777 778 780 782 784 785 787 790 792 793 793 794 796 798 800 803 806 806 806 808 811 810 810 812 813 813 815 817 818 819 819 819 819 820 821 823
694 695 696 698 699 701 704 706 708 710 712 714 716 718 720 723 725 726 728 730 733 735 737 738 740 742 744 744 743 742 744 745 747 749 751 754 756 758 759 761 762 763 764 764 765 767 770 772 773 774 776 777 778 780 782 784 786 789 791 792 793 794 796 798 800 801 802 802 803 805 805 805 806 807 808 810 811 812 813 814 814 814 815 816 818
690 690 691 694 696 698 700 702 705 707 709 711 713 715 717 720 722 723 724 727 730 732 734 735 736 739 742 742 740 739 740 741 743 745 748 751 753 754 755 756 757 758 759 759 761 762 765 767 769 771 773 774 775 776 779 780 782 785 788 788 789 791 792 794 794 795 797 798 797 799 800 799 800 801 803 805 806 806 808 809 809 809 811 812 813
683 684 687 690 692 694 696 698 700 703 705 706 708 711 713 716 719 720 721 724 726 729 731 732 733 736 738 737 736 736 736 737 739 741 745 748 750 750 751 752 753 753 754 755 756 757 759 762 765 767 769 770 771 773 774 776 778 781 782 783 784 787 788 788 788 790 792 791 790 792 794 794 794 796 798 801 802 801 802 803 804 806 807 808 808
677 680 683 686 688 690 692 693 695 698 700 702 704 706 709 712 715 717 719 720 722 724 726 727 730 732 732 732 732 732 732 734 736 738 741 744 746 747 747 748 749 749 750 751 752 753 754 757 759 762 764 765 767 769 770 772 774 775 776 778 780 781 781 782 783 784 785 784 784 787 788 788 790 792 794 796 797 797 797 799 800 802 802 803 803